COSMOS 2067

Satellite information

Favourite Embed

Satellite Type and Status

PAYLOADIN ORBIT

Key statistics

Satellite COSMOS 2067 at a glance.

Uptime

13036

Days in orbit

Revolutions

≈ 12.6

Per day

Orbit

LEO

Low Earth Orbit

Inclination

74.0

Latest

Satellite identification and parameters

Extended collection of information and parameters for COSMOS 2067.

Object identification

Identified? True

Debris? False

Object name: COSMOS 2067

International designator: 1990-029D

Object number (NORAD): 20552

Object ID (CCSDS): 20552

Country: COMMONWEALTH OF INDEPENDENT STATES (CIS)

Current information (Y/N): Y

RCS size: MEDIUM

Orbital parameters

Period: 114.473 minutes

Inclination: 73.982 deg

SMA: 7809.62 km

Apoapsis: 1462.029 km

Periapsis: 1400.942 km

RAAN: 263.5128 deg

Eccentricy: 0.00391105

Argument of periapsis: 83.9666 deg

Mean anomaly: 34.5066 deg

Mean motion: 12.57934067 rev/day

Mean motion (dot): -0.00000003 rev/day2

B* drag term: 0.000079163285 1/REarth

Two-line elements (TLE)

Creation date: Dec. 12, 2025, 10:14 a.m.

Reference frame: TEME

Reference center: EARTH

Epoch: Dec. 12, 2025, 6:31 a.m. UTC

TLE line 0: 0 COSMOS 2067

TLE line 1: 1 20552U 90029D 25346.27166240 -.00000003 00000-0 79163-4 0 9996

TLE line 2: 2 20552 73.9820 263.5128 0039110 83.9666 34.5066 12.57934067638694

Live tracking on map

Real-time ground track for satellite COSMOS 2067.

In-orbit conjunctions

There are no conjunctions computed for COSMOS 2067, at the moment. Check back to stay up to date, as we update our databases every day.

Go to all conjunctions

Associated space launch

Military communications satellites

COSMOS 2067 was lifted into orbit during the mission ‘Kosmos-3M | Strela-1M 345-352’, on board a Kosmos-3M space rocket.

The launch took place on April 6, 1990, 3:13 a.m. from 133/3 (133L).

For more information about the launch, click the button.

Launch to space Kosmos-3M | Strela-1M 345-352
Kosmos-3M | Strela-1M 345-352

Agency: N/A

Status: Launch Successful

Launch date: April 6, 1990, 3:13 a.m. UTC

Rocket: Kosmos-3M

Launch pad: 133/3 (133L)

Location: Plesetsk Cosmodrome, Russian Federation

...

Latest news about this satellite

There are no fresh news available about this satellite. Check back as we update our databases every day.


Newsletter sign-up

Weekly statistics, charts and insights to help you stay on top of the space industry.